EW3619 Weather Reports


Display with metric or nautical units.
time (UTC)temp
F
wind
direction
speed
MPH
gust
MPH
rain 1hr
in
rain 24hr
in
rain mn
in
humidity
%
barometer
mb
20260510163056 62 160 1.0 5.0 0.00 0.00 0.00 1 1012.3
20260510161552 60 171 1.0 6.0 0.00 0.00 0.00 1 1012.2
20260510160052 60 163 2.0 5.0 0.00 0.00 0.00 1 1012.2
20260510154601 60 153 1.0 5.0 0.00 0.00 0.00 1 1012.1
20260510153047 59 155 1.0 6.0 0.00 0.00 0.00 1 1012.2
20260510151534 59 202 1.0 4.0 0.00 0.00 0.00 1 1012.1
20260510150030 58 38 0.0 3.0 0.00 0.00 0.00 1 1012.0
20260510144543 57 38 1.0 3.0 0.00 0.00 0.00 1 1012.0
20260510143020 57 9 0.0 3.0 0.00 0.00 0.00 1 1011.9
20260510141516 57 281 0.0 4.0 0.00 0.00 0.00 1 1011.8
20260510140012 57 20 2.0 4.0 0.00 0.00 0.00 1 1011.6
20260510134507 57 36 2.0 4.0 0.00 0.00 0.00 1 1011.6
20260510133003 56 293 1.0 3.0 0.00 0.00 0.00 1 1011.6
20260510131558 57 340 2.0 3.0 0.00 0.00 0.00 1 1011.5
20260510130055 56 330 0.0 3.0 0.00 0.00 0.00 1 1011.4
20260510124550 56 355 0.0 2.0 0.00 0.00 0.00 1 1011.3
20260510123051 56 355 1.0 5.0 0.00 0.00 0.00 1 1011.3
20260510121542 57 306 1.0 4.0 0.00 0.00 0.00 1 1011.3
20260510120038 56 307 1.0 3.0 0.00 0.00 0.00 1 1011.3
20260510114533 56 5 1.0 3.0 0.00 0.00 0.00 1 1011.3
20260510113028 56 11 3.0 5.0 0.00 0.00 0.00 1 1011.2
20260510111525 57 344 2.0 5.0 0.00 0.00 0.00 1 1011.2
20260510110022 57 11 2.0 5.0 0.00 0.00 0.00 1 1011.3
20260510104514 57 355 2.0 4.0 0.00 0.00 0.00 1 1011.2
20260510103010 57 355 2.0 5.0 0.00 0.00 0.00 1 1011.4
20260510101506 57 26 2.0 4.0 0.00 0.00 0.00 1 1011.4
20260510100002 57 360 1.0 4.0 0.00 0.00 0.00 1 1011.5
20260510094614 57 341 2.0 4.0 0.00 0.00 0.00 1 1011.5
20260510093053 57 344 1.0 4.0 0.00 0.00 0.00 1 1011.6
20260510091652 57 317 1.0 4.0 0.00 0.00 0.00 1 1011.6
20260510090045 58 268 0.0 2.0 0.00 0.00 0.00 1 1011.8
20260510084553 57 268 0.0 2.0 0.00 0.00 0.00 1 1011.8
20260510083039 57 268 0.0 2.0 0.00 0.00 0.00 1 1012.0
20260510081535 57 267 1.0 3.0 0.00 0.00 0.00 1 1011.9
20260510080026 57 321 0.0 3.0 0.00 0.00 0.00 1 1012.0
20260510074522 57 306 0.0 3.0 0.00 0.00 0.00 1 1012.1
20260510073020 56 306 1.0 3.0 0.00 0.00 0.00 1 1012.1
20260510071514 56 305 2.0 4.0 0.00 0.00 0.00 1 1012.4
20260510070010 55 304 1.0 4.0 0.00 0.00 0.00 1 1012.2
20260510064511 55 338 1.0 4.0 0.00 0.00 0.00 1 1012.4
20260510063010 54 318 2.0 4.0 0.00 0.00 0.00 1 1012.6
20260510061510 54 311 2.0 4.0 0.00 0.00 0.00 1 1012.4
20260510060005 54 304 2.0 4.0 0.00 0.00 0.00 1 1012.5
20260510054602 55 322 0.0 5.0 0.00 0.00 0.00 1 1012.3
20260510053058 56 272 1.0 3.0 0.00 0.00 0.00 1 1012.3
20260510051549 56 272 0.0 3.0 0.00 0.00 0.00 1 1012.3
20260510050045 56 271 1.0 5.0 0.00 0.00 0.00 1 1012.4
20260510044542 57 294 1.0 4.0 0.00 0.00 0.00 1 1012.2
20260510043035 57 277 2.0 5.0 0.00 0.00 0.00 1 1012.2
20260510041535 57 277 2.0 6.0 0.00 0.00 0.00 1 1012.1
20260510040027 58 278 3.0 5.0 0.00 0.00 0.00 1 1012.2
20260510034527 58 265 3.0 7.0 0.00 0.00 0.00 1 1011.8
20260510033017 58 233 3.0 9.0 0.00 0.00 0.00 1 1011.7
20260510031513 59 231 3.0 9.0 0.00 0.00 0.00 1 1011.3
20260510030009 60 263 2.0 6.0 0.00 0.00 0.00 1 1011.2
20260510024504 61 206 2.0 5.0 0.00 0.00 0.00 1 1011.1
20260510023100 62 241 3.0 9.0 0.00 0.00 0.00 1 1010.9
20260510021556 64 236 4.0 9.0 0.00 0.00 0.00 1 1010.8
20260510020052 66 211 4.0 9.0 0.00 0.00 0.00 1 1010.8
20260510014547 68 240 4.0 10.0 0.00 0.00 0.00 1 1010.5
20260510013056 70 205 5.0 12.0 0.00 0.00 0.00 1 1010.6
20260510011543 72 235 6.0 12.0 0.00 0.00 0.00 1 1010.5
20260510010038 73 182 4.0 13.0 0.00 0.00 0.00 1 1010.6
20260510004537 74 221 4.0 9.0 0.00 0.00 0.00 1 1010.5
20260510003033 75 200 5.0 10.0 0.00 0.00 0.00 1 1010.5
20260510001530 76 167 6.0 10.0 0.00 0.00 0.00 1 1010.3
20260510000026 76 188 3.0 9.0 0.00 0.00 0.00 1 1010.3
20260509234532 76 221 4.0 10.0 0.00 0.00 0.00 1 1010.3
20260509233016 76 172 6.0 11.0 0.00 0.00 0.00 1 1010.2
20260509231512 76 213 6.0 15.0 0.00 0.00 0.00 1 1010.3
20260509230008 76 171 4.0 10.0 0.00 0.00 0.00 1 1010.5
20260509224505 76 236 4.0 10.0 0.00 0.00 0.00 1 1010.7
20260509223059 76 228 6.0 14.0 0.00 0.00 0.00 1 1010.9
20260509221555 76 216 5.0 11.0 0.00 0.00 0.00 1 1011.0
20260509220054 76 179 4.0 10.0 0.00 0.00 0.00 1 1011.0
20260509214546 76 201 5.0 12.0 0.00 0.00 0.00 1 1011.1
20260509213041 76 272 7.0 12.0 0.00 0.00 0.00 1 1011.2
20260509211544 77 196 6.0 13.0 0.00 0.00 0.00 1 1011.1
20260509210037 77 196 6.0 14.0 0.00 0.00 0.00 1 1011.1
20260509204528 77 214 6.0 15.0 0.00 0.00 0.00 1 1011.2
20260509203025 77 196 6.0 15.0 0.00 0.00 0.00 1 1011.2
20260509201520 78 171 9.0 15.0 0.00 0.00 0.00 1 1011.2
20260509200016 79 238 5.0 12.0 0.00 0.00 0.00 1 1011.3
20260509194520 79 214 5.0 12.0 0.00 0.00 0.00 1 1011.3
20260509193007 79 261 5.0 10.0 0.00 0.00 0.00 1 1011.4
20260509191502 80 208 7.0 10.0 0.00 0.00 0.00 1 1011.5
20260509190100 79 266 5.0 11.0 0.00 0.00 0.00 1 1011.6
20260509184643 78 215 4.0 9.0 0.00 0.00 0.00 1 1011.6
20260509183053 77 173 4.0 9.0 0.00 0.00 0.00 1 1011.8
20260509181548 76 174 5.0 10.0 0.00 0.00 0.00 1 1011.7
20260509180041 76 180 4.0 8.0 0.00 0.00 0.00 1 1011.9
20260509174537 76 182 1.0 9.0 0.00 0.00 0.00 1 1012.1
20260509173031 76 203 2.0 6.0 0.00 0.00 0.00 1 1012.0
20260509171527 74 101 3.0 6.0 0.00 0.00 0.00 1 1012.0
20260509170023 73 131 1.0 6.0 0.00 0.00 0.00 1 1012.2
20260509164518 70 120 2.0 6.0 0.00 0.00 0.00 1 1012.2